,,,PA_Meas_PMT16A,,PR_Meas_QMR101_102,,RH_Meas_QMH101,,SR_Meas_QMS101,,TA_Meas_QMH101,,GenWind,,GenWind,
date,time,status,PA,status,PR,status,RH,status,SR,status,TA,status,DirAvg,status,SpdAvg,
2011-12-13, 00:00:04,VALID,1003.36,VALID,0,VALID,91.2033,VALID,0,VALID,25.3565,VALID,350,VALID,0.241016,
2011-12-13, 00:01:04,VALID,1003.37,VALID,0,VALID,91.2567,VALID,0,VALID,25.3779,VALID,350,VALID,0.241406,
2011-12-13, 00:02:04,VALID,1003.41,VALID,0,VALID,91.3024,VALID,0,VALID,25.3565,VALID,350,VALID,0.0996094,
2011-12-13, 00:03:04,VALID,1003.41,VALID,0,VALID,91.3787,VALID,0,VALID,25.376,VALID,350,VALID,0.0878906,
2011-12-13, 00:04:04,VALID,1003.43,VALID,0,VALID,91.3711,VALID,0,VALID,25.3955,VALID,350,VALID,0.046875,
2011-12-13, 00:05:04,VALID,1003.41,VALID,0,VALID,91.3024,VALID,0,VALID,25.3955,VALID,350,VALID,0,
2011-12-13, 00:06:04,VALID,1003.4,VALID,0,VALID,91.3177,VALID,0,VALID,25.4149,VALID,350,VALID,0.00078125,
2011-12-13, 00:07:04,VALID,1003.38,VALID,0,VALID,91.4245,VALID,0,VALID,25.3955,VALID,350,VALID,0.362891,
2011-12-13, 00:08:04,VALID,1003.36,VALID,0,VALID,91.4092,VALID,0,VALID,25.4558,VALID,350,VALID,0.438281,
2011-12-13, 00:09:04,VALID,1003.32,VALID,0,VALID,91.2033,VALID,0,VALID,25.4149,VALID,350,VALID,0.587891,
2011-12-13, 00:10:04,VALID,1003.29,VALID,0,VALID,91.0278,VALID,0.0815089,VALID,25.4363,VALID,350,VALID,0.636328,
2011-12-13, 00:11:04,VALID,1003.28,VALID,0,VALID,91.1117,VALID,0,VALID,25.4149,VALID,350,VALID,0.539844,
2011-12-13, 00:12:04,VALID,1003.26,VALID,0,VALID,91.1346,VALID,0,VALID,25.3955,VALID,350,VALID,0.566016,
2011-12-13, 00:13:04,VALID,1003.22,VALID,0,VALID,91.127,VALID,0,VALID,25.376,VALID,350,VALID,0.630078,
2011-12-13, 00:14:04,VALID,1003.25,VALID,0,VALID,91.2948,VALID,0,VALID,25.4149,VALID,350,VALID,0.46875,
2011-12-13, 00:15:04,VALID,1003.27,VALID,0,VALID,91.5771,VALID,0,VALID,25.3565,VALID,350,VALID,0.405078,
2011-12-13, 00:16:04,VALID,1003.26,VALID,0,VALID,91.5923,VALID,0,VALID,25.3584,VALID,350,VALID,0.275,
2011-12-13, 00:17:04,VALID,1003.28,VALID,0,VALID,91.5695,VALID,0,VALID,25.3565,VALID,350,VALID,0.378516,
2011-12-13, 00:18:04,VALID,1003.27,VALID,0,VALID,91.6076,VALID,0,VALID,25.3565,VALID,350,VALID,0.369531,
2011-12-13, 00:19:04,VALID,1003.26,VALID,0,VALID,91.5466,VALID,0,VALID,25.3779,VALID,350,VALID,0,
2011-12-13, 00:20:04,VALID,1003.28,VALID,0,VALID,91.4855,VALID,0,VALID,25.3565,VALID,350,VALID,0,
2011-12-13, 00:21:04,VALID,1003.32,VALID,0,VALID,91.5161,VALID,0,VALID,25.3584,VALID,350,VALID,0,
2011-12-13, 00:22:04,VALID,1003.35,VALID,0,VALID,91.5161,VALID,0,VALID,25.3584,VALID,350,VALID,0,
2011-12-13, 00:23:04,VALID,1003.37,VALID,0,VALID,91.7144,VALID,0,VALID,25.337,VALID,350,VALID,0,
2011-12-13, 00:24:04,VALID,1003.42,VALID,0,VALID,91.5542,VALID,0,VALID,25.3565,VALID,350,VALID,0,
2011-12-13, 00:25:04,VALID,1003.46,VALID,0,VALID,91.5542,VALID,0,VALID,25.3779,VALID,350,VALID,0,
2011-12-13, 00:26:04,VALID,1003.53,VALID,0,VALID,91.4092,VALID,0,VALID,25.376,VALID,350,VALID,0,
2011-12-13, 00:27:04,VALID,1003.58,VALID,0,VALID,91.4169,VALID,0,VALID,25.3974,VALID,350,VALID,0,
2011-12-13, 00:28:04,VALID,1003.59,VALID,0,VALID,91.3558,VALID,0,VALID,25.3955,VALID,350,VALID,0.144922,
2011-12-13, 00:29:04,VALID,1003.6,VALID,0,VALID,91.3864,VALID,0,VALID,25.4363,VALID,350,VALID,0.00195313,
2011-12-13, 00:30:04,VALID,1003.62,VALID,0,VALID,91.3711,VALID,0,VALID,25.4753,VALID,350,VALID,0,
2011-12-13, 00:31:04,VALID,1003.64,VALID,0,VALID,91.2796,VALID,0,VALID,25.4928,VALID,350,VALID,0,
2011-12-13, 00:32:04,VALID,1003.62,VALID,0,VALID,91.0736,VALID,0,VALID,25.5142,VALID,350,VALID,0.260547,
2011-12-13, 00:33:04,VALID,1003.64,VALID,0,VALID,91.0812,VALID,0,VALID,25.5123,VALID,350,VALID,0.281641,
2011-12-13, 00:34:04,VALID,1003.67,VALID,0,VALID,91.1651,VALID,0,VALID,25.5142,VALID,350,VALID,0.180469,
2011-12-13, 00:35:04,VALID,1003.75,VALID,0,VALID,91.0888,VALID,0,VALID,25.5123,VALID,306,VALID,0.541797,
2011-12-13, 00:36:04,VALID,1003.88,VALID,0,VALID,91.5084,VALID,0,VALID,25.5902,VALID,292,VALID,0.000390625,
2011-12-13, 00:37:04,VALID,1004.1,VALID,0,VALID,90.2115,VALID,0,VALID,25.6486,VALID,246,VALID,1.5168,
2011-12-13, 00:38:04,VALID,1004.1,VALID,0,VALID,87.5338,VALID,0,VALID,25.7071,VALID,260,VALID,1.37109,
2011-12-13, 00:39:04,VALID,1004.1,VALID,0,VALID,84.9171,VALID,0,VALID,25.7071,VALID,266,VALID,2.03203,
2011-12-13, 00:40:04,VALID,1004.1,VALID,0,VALID,81.0721,VALID,0,VALID,25.6116,VALID,285,VALID,3.70508,
2011-12-13, 00:41:04,VALID,1004.11,VALID,0,VALID,81.362,VALID,0,VALID,25.4734,VALID,294,VALID,1.58555,
2011-12-13, 00:42:04,VALID,1004.09,VALID,0,VALID,82.2241,VALID,0,VALID,25.4363,VALID,225,VALID,0.756641,
2011-12-13, 00:43:04,VALID,1004.13,VALID,0,VALID,82.8878,VALID,0,VALID,25.337,VALID,236,VALID,2.40469,
2011-12-13, 00:44:04,VALID,1004.2,VALID,0,VALID,83.643,VALID,0,VALID,25.2592,VALID,241,VALID,1.85078,
2011-12-13, 00:45:04,VALID,1004.14,VALID,0,VALID,84.3296,VALID,0,VALID,25.1618,VALID,252,VALID,2.54375,
2011-12-13, 00:46:04,VALID,1004.22,VALID,0,VALID,85.4587,VALID,0,VALID,25.006,VALID,219,VALID,3.36953,
2011-12-13, 00:47:04,VALID,1004.34,VALID,0,VALID,86.214,VALID,0,VALID,24.8522,VALID,221,VALID,2.6043,
2011-12-13, 00:48:04,VALID,1004.43,VALID,0,VALID,87.4041,VALID,0,VALID,24.6945,VALID,263,VALID,2.28672,
2011-12-13, 00:49:04,VALID,1004.4,VALID,0,VALID,88.0296,VALID,0,VALID,24.5972,VALID,275,VALID,2.10742,
2011-12-13, 00:50:04,VALID,1004.46,VALID,0,VALID,88.6247,VALID,0,VALID,24.5582,VALID,276,VALID,2.39258,
2011-12-13, 00:51:04,VALID,1004.46,VALID,0,VALID,88.64,VALID,0,VALID,24.4609,VALID,273,VALID,2.37109,
2011-12-13, 00:52:04,VALID,1004.53,VALID,0,VALID,88.5713,VALID,0,VALID,24.4043,VALID,267,VALID,1.64844,
2011-12-13, 00:53:04,VALID,1004.36,VALID,0,VALID,86.7327,VALID,0,VALID,24.2681,VALID,243,VALID,4.04023,
2011-12-13, 00:54:04,VALID,1004.41,VALID,0,VALID,86.7785,VALID,0,VALID,24.0521,VALID,235,VALID,2.93125,
2011-12-13, 00:55:04,VALID,1004.47,VALID,0,VALID,87.3812,VALID,0,VALID,23.8982,VALID,243,VALID,1.56445,
2011-12-13, 00:56:04,VALID,1004.35,VALID,0,VALID,89.2045,VALID,0,VALID,23.7814,VALID,261,VALID,1.2582,
2011-12-13, 00:57:04,VALID,1004.35,VALID,0,VALID,89.5402,VALID,0.0815089,VALID,23.6434,VALID,301,VALID,1.98789,
2011-12-13, 00:58:04,VALID,1004.35,VALID,0,VALID,89.7919,VALID,0,VALID,23.585,VALID,235,VALID,1.98594,
2011-12-13, 00:59:04,VALID,1004.33,VALID,0.5,VALID,88.8612,VALID,0.0815089,VALID,23.4877,VALID,242,VALID,2.74609,
2011-12-13, 01:00:04,VALID,1004.31,VALID,0,VALID,89.2198,VALID,0,VALID,23.4487,VALID,255,VALID,2.47578,
2011-12-13, 01:01:04,VALID,1004.34,VALID,0,VALID,88.8612,VALID,0.0815089,VALID,23.3886,VALID,258,VALID,2.43672,
2011-12-13, 01:02:04,VALID,1004.3,VALID,0,VALID,90.0284,VALID,0,VALID,23.3497,VALID,302,VALID,1.04844,
2011-12-13, 01:03:04,VALID,1004.33,VALID,0.5,VALID,90.9363,VALID,0.0815089,VALID,23.2931,VALID,238,VALID,1.33867,
2011-12-13, 01:04:04,VALID,1004.34,VALID,0,VALID,91.0583,VALID,0,VALID,23.1957,VALID,297,VALID,2.71563,
2011-12-13, 01:05:04,VALID,1004.32,VALID,0.5,VALID,91.9738,VALID,0,VALID,23.1179,VALID,264,VALID,0.816016,
2011-12-13, 01:06:04,VALID,1004.32,VALID,0,VALID,92.5688,VALID,0.0815089,VALID,23.0595,VALID,259,VALID,1.11211,
2011-12-13, 01:07:04,VALID,1004.26,VALID,0.5,VALID,92.8282,VALID,0,VALID,23.0401,VALID,258,VALID,1.47617,
2011-12-13, 01:08:04,VALID,1004.21,VALID,0,VALID,91.9204,VALID,0.0815089,VALID,22.9605,VALID,240,VALID,3.275,
2011-12-13, 01:09:04,VALID,1004.24,VALID,0.5,VALID,92.7748,VALID,0,VALID,22.9817,VALID,210,VALID,1.32031,
2011-12-13, 01:10:04,VALID,1004.19,VALID,0,VALID,92.7977,VALID,0.0815089,VALID,22.9233,VALID,241,VALID,1.78437,
2011-12-13, 01:11:04,VALID,1004.21,VALID,0.5,VALID,92.9808,VALID,0,VALID,22.9021,VALID,274,VALID,1.25937,
2011-12-13, 01:12:04,VALID,1004.15,VALID,0,VALID,93.202,VALID,0,VALID,22.9039,VALID,255,VALID,1.54688,
2011-12-13, 01:13:04,VALID,1004.17,VALID,0,VALID,93.0342,VALID,0.0815089,VALID,22.8632,VALID,278,VALID,1.2457,
2011-12-13, 01:14:04,VALID,1004.1,VALID,0,VALID,92.5154,VALID,0.0815089,VALID,22.8243,VALID,267,VALID,2.20547,
2011-12-13, 01:15:04,VALID,1004.11,VALID,0.5,VALID,92.1035,VALID,0.0815089,VALID,22.8066,VALID,225,VALID,2.21445,
2011-12-13, 01:16:04,VALID,1004.09,VALID,0,VALID,92.1187,VALID,0,VALID,22.7465,VALID,241,VALID,2.44727,
2011-12-13, 01:17:04,VALID,1004.12,VALID,0,VALID,92.8206,VALID,0.0815089,VALID,22.7677,VALID,211,VALID,1.89492,
2011-12-13, 01:18:04,VALID,1004.12,VALID,0,VALID,93.0342,VALID,0.0815089,VALID,22.7076,VALID,247,VALID,1.70977,
2011-12-13, 01:19:04,VALID,1004.11,VALID,0.5,VALID,93.4614,VALID,0,VALID,22.7093,VALID,260,VALID,1.16055,
2011-12-13, 01:20:04,VALID,1004.13,VALID,0,VALID,93.8429,VALID,0.0815089,VALID,22.7287,VALID,69,VALID,0.832422,
2011-12-13, 01:21:04,VALID,1004.17,VALID,0,VALID,94.0565,VALID,0,VALID,22.7287,VALID,198,VALID,0.671094,
2011-12-13, 01:22:04,VALID,1004.17,VALID,0.5,VALID,93.8734,VALID,0.0815089,VALID,22.6881,VALID,272,VALID,1.39297,
2011-12-13, 01:23:04,VALID,1004.17,VALID,0,VALID,94.1022,VALID,0.0815089,VALID,22.6881,VALID,263,VALID,1.21445,
2011-12-13, 01:24:04,VALID,1004.14,VALID,0,VALID,94.3464,VALID,0.0815089,VALID,22.7093,VALID,285,VALID,0.570703,
2011-12-13, 01:25:04,VALID,1004.1,VALID,0,VALID,94.3769,VALID,0.0815089,VALID,22.6881,VALID,281,VALID,0.980078,
2011-12-13, 01:26:04,VALID,1004.09,VALID,0.5,VALID,94.3998,VALID,0,VALID,22.6898,VALID,330,VALID,0.811719,
2011-12-13, 01:27:04,VALID,1004.02,VALID,0,VALID,94.5218,VALID,0.0815089,VALID,22.6686,VALID,352,VALID,0.705469,
2011-12-13, 01:28:04,VALID,1004.08,VALID,0,VALID,94.4837,VALID,0,VALID,22.6915,VALID,357,VALID,0.832031,
2011-12-13, 01:29:04,VALID,1004.06,VALID,0,VALID,94.621,VALID,0.0815089,VALID,22.6898,VALID,7,VALID,0.675391,
2011-12-13, 01:30:04,VALID,1004,VALID,0,VALID,94.3921,VALID,0,VALID,22.6297,VALID,313,VALID,0.666016,
2011-12-13, 01:31:04,VALID,1003.96,VALID,0,VALID,94.4074,VALID,0,VALID,22.6103,VALID,323,VALID,0.451953,
2011-12-13, 01:32:04,VALID,1003.85,VALID,0,VALID,94.2624,VALID,0.0815089,VALID,22.5714,VALID,356,VALID,0.694141,
2011-12-13, 01:33:04,VALID,1003.78,VALID,0,VALID,94.4227,VALID,0.0815089,VALID,22.5925,VALID,360,VALID,0.158594,
2011-12-13, 01:34:04,VALID,1003.72,VALID,0,VALID,94.56,VALID,0.0815089,VALID,22.5519,VALID,360,VALID,0.153125,
2011-12-13, 01:35:04,VALID,1003.68,VALID,0,VALID,94.3921,VALID,0.0815089,VALID,22.5325,VALID,211,VALID,0.604297,
2011-12-13, 01:36:04,VALID,1003.61,VALID,0.5,VALID,94.1709,VALID,0.0815089,VALID,22.4936,VALID,234,VALID,0.863281,
2011-12-13, 01:37:04,VALID,1003.53,VALID,0,VALID,94.2548,VALID,0.0815089,VALID,22.4953,VALID,220,VALID,0.216016,
2011-12-13, 01:38:04,VALID,1003.48,VALID,0,VALID,94.3845,VALID,0.0815089,VALID,22.4936,VALID,257,VALID,0.450391,
2011-12-13, 01:39:04,VALID,1003.43,VALID,0,VALID,94.4837,VALID,0.0815089,VALID,22.4741,VALID,278,VALID,0.385156,
2011-12-13, 01:40:04,VALID,1003.33,VALID,0,VALID,94.4913,VALID,0.0815089,VALID,22.513,VALID,297,VALID,0.282031,
2011-12-13, 01:41:04,VALID,1003.25,VALID,0,VALID,94.4379,VALID,0.0815089,VALID,22.4918,VALID,357,VALID,0.31875,
2011-12-13, 01:42:04,VALID,1003.2,VALID,0,VALID,94.56,VALID,0.0815089,VALID,22.5113,VALID,15,VALID,0.269531,
2011-12-13, 01:43:04,VALID,1003.16,VALID,0,VALID,94.6134,VALID,0.0815089,VALID,22.5519,VALID,36,VALID,0.322656,
2011-12-13, 01:44:04,VALID,1003.09,VALID,0,VALID,94.7431,VALID,0,VALID,22.513,VALID,27,VALID,0.833203,
2011-12-13, 01:45:04,VALID,1003.01,VALID,0,VALID,94.766,VALID,0,VALID,22.5536,VALID,26,VALID,0.369922,
2011-12-13, 01:46:04,VALID,1002.94,VALID,0,VALID,94.888,VALID,0,VALID,22.5731,VALID,26,VALID,0.494141,
2011-12-13, 01:47:04,VALID,1002.89,VALID,0,VALID,94.6591,VALID,0,VALID,22.5748,VALID,27,VALID,0.691797,
2011-12-13, 01:48:04,VALID,1002.81,VALID,0,VALID,94.6515,VALID,0,VALID,22.5536,VALID,30,VALID,0.602344,
2011-12-13, 01:49:04,VALID,1002.75,VALID,0,VALID,94.5905,VALID,0,VALID,22.5536,VALID,38,VALID,0.45,
2011-12-13, 01:50:04,VALID,1002.72,VALID,0,VALID,94.7354,VALID,0,VALID,22.5325,VALID,97,VALID,0.473437,
2011-12-13, 01:51:04,VALID,1002.65,VALID,0,VALID,94.7736,VALID,0,VALID,22.5536,VALID,100,VALID,0.220313,
2011-12-13, 01:52:04,VALID,1002.61,VALID,0,VALID,94.7278,VALID,0,VALID,22.5748,VALID,100,VALID,0.476172,
2011-12-13, 01:53:04,VALID,1002.54,VALID,0,VALID,94.8804,VALID,0,VALID,22.5925,VALID,100,VALID,0.510938,
2011-12-13, 01:54:04,VALID,1002.51,VALID,0,VALID,94.9796,VALID,0,VALID,22.5925,VALID,100,VALID,0.157422,
2011-12-13, 01:55:04,VALID,1002.46,VALID,0,VALID,94.9338,VALID,0,VALID,22.5731,VALID,79,VALID,0.536719,
2011-12-13, 01:56:04,VALID,1002.44,VALID,0,VALID,95.0024,VALID,0,VALID,22.5925,VALID,66,VALID,0.283203,
2011-12-13, 01:57:04,VALID,1002.42,VALID,0,VALID,95.155,VALID,0,VALID,22.6315,VALID,64,VALID,0.405859,
2011-12-13, 01:58:04,VALID,1002.41,VALID,0,VALID,95.1093,VALID,0,VALID,22.6103,VALID,64,VALID,0.0203125,
2011-12-13, 01:59:04,VALID,1002.42,VALID,0.5,VALID,95.0558,VALID,0,VALID,22.5714,VALID,65,VALID,0,
2011-12-13, 02:00:04,VALID,1002.34,VALID,0,VALID,94.949,VALID,0,VALID,22.5731,VALID,64,VALID,0.0292969,
2011-12-13, 02:01:04,VALID,1002.31,VALID,0,VALID,95.0177,VALID,0,VALID,22.5325,VALID,64,VALID,0,
2011-12-13, 02:02:04,VALID,1002.26,VALID,0,VALID,95.094,VALID,0,VALID,22.5342,VALID,64,VALID,0,
2011-12-13, 02:03:04,VALID,1002.21,VALID,0,VALID,95.094,VALID,0,VALID,22.5342,VALID,64,VALID,0,
2011-12-13, 02:04:04,VALID,1002.17,VALID,0,VALID,95.1855,VALID,0,VALID,22.5342,VALID,64,VALID,0,
2011-12-13, 02:05:04,VALID,1002.12,VALID,0,VALID,95.2084,VALID,0,VALID,22.5325,VALID,64,VALID,0,
2011-12-13, 02:06:04,VALID,1002.08,VALID,0,VALID,95.2313,VALID,0,VALID,22.5342,VALID,69,VALID,0.536328,
2011-12-13, 02:07:04,VALID,1002.06,VALID,0,VALID,95.2618,VALID,0,VALID,22.5325,VALID,74,VALID,0.595703,
2011-12-13, 02:08:04,VALID,1002.04,VALID,0,VALID,95.3686,VALID,0,VALID,22.5925,VALID,86,VALID,0.387109,
2011-12-13, 02:09:04,VALID,1002.05,VALID,0,VALID,95.2847,VALID,0,VALID,22.5325,VALID,87,VALID,0.732031,
2011-12-13, 02:10:04,VALID,1002.09,VALID,0,VALID,95.361,VALID,0,VALID,22.5325,VALID,87,VALID,0.430078,
2011-12-13, 02:11:04,VALID,1002.12,VALID,0,VALID,95.4144,VALID,0,VALID,22.5731,VALID,86,VALID,0.658594,
2011-12-13, 02:12:04,VALID,1002.15,VALID,0,VALID,95.3076,VALID,0,VALID,22.513,VALID,75,VALID,0.569141,
2011-12-13, 02:13:04,VALID,1002.26,VALID,0,VALID,95.3229,VALID,0,VALID,22.5342,VALID,75,VALID,0.19375,
2011-12-13, 02:14:04,VALID,1002.31,VALID,0,VALID,95.3076,VALID,0,VALID,22.5147,VALID,75,VALID,0.265234,
2011-12-13, 02:15:04,VALID,1002.34,VALID,0,VALID,95.3229,VALID,0,VALID,22.513,VALID,75,VALID,0.0496094,
2011-12-13, 02:16:04,VALID,1002.39,VALID,0,VALID,95.1855,VALID,0,VALID,22.4546,VALID,80,VALID,0.408203,
2011-12-13, 02:17:04,VALID,1002.42,VALID,0,VALID,95.2466,VALID,0,VALID,22.4953,VALID,80,VALID,0.340625,
2011-12-13, 02:18:04,VALID,1002.47,VALID,0,VALID,95.1932,VALID,0,VALID,22.4758,VALID,80,VALID,0.282422,
2011-12-13, 02:19:04,VALID,1002.47,VALID,0,VALID,95.2237,VALID,0,VALID,22.4741,VALID,80,VALID,0.391016,
2011-12-13, 02:20:04,VALID,1002.52,VALID,0,VALID,95.1703,VALID,0.0815089,VALID,22.4953,VALID,89,VALID,0.455078,
2011-12-13, 02:21:04,VALID,1002.53,VALID,0,VALID,95.0711,VALID,0,VALID,22.4953,VALID,89,VALID,0,
2011-12-13, 02:22:04,VALID,1002.57,VALID,0,VALID,95.1398,VALID,0,VALID,22.5342,VALID,89,VALID,0.320703,
2011-12-13, 02:23:04,VALID,1002.59,VALID,0,VALID,95.1245,VALID,0,VALID,22.5342,VALID,8,VALID,0.515625,
2011-12-13, 02:24:04,VALID,1002.6,VALID,0,VALID,95.3076,VALID,0,VALID,22.5925,VALID,4,VALID,0.696875,
2011-12-13, 02:25:04,VALID,1002.58,VALID,0,VALID,95.4068,VALID,0,VALID,22.6704,VALID,2,VALID,0.662109,
2011-12-13, 02:26:04,VALID,1002.59,VALID,0,VALID,95.1779,VALID,0,VALID,22.6297,VALID,353,VALID,0.871875,
2011-12-13, 02:27:04,VALID,1002.57,VALID,0,VALID,95.0406,VALID,0,VALID,22.6509,VALID,340,VALID,0.996094,
2011-12-13, 02:28:04,VALID,1002.58,VALID,0,VALID,95.0024,VALID,0,VALID,22.6509,VALID,352,VALID,0.460938,
2011-12-13, 02:29:04,VALID,1002.55,VALID,0,VALID,94.9948,VALID,0,VALID,22.6509,VALID,356,VALID,0.539453,
2011-12-13, 02:30:04,VALID,1002.54,VALID,0,VALID,95.033,VALID,0,VALID,22.6509,VALID,356,VALID,0.450391,
2011-12-13, 02:31:04,VALID,1002.57,VALID,0,VALID,95.0101,VALID,0,VALID,22.6315,VALID,356,VALID,0.210547,
2011-12-13, 02:32:04,VALID,1002.56,VALID,0,VALID,95.1474,VALID,0,VALID,22.6509,VALID,353,VALID,0,
2011-12-13, 02:33:04,VALID,1002.53,VALID,0,VALID,95.2923,VALID,0,VALID,22.6898,VALID,351,VALID,0,
2011-12-13, 02:34:04,VALID,1002.53,VALID,0,VALID,95.3763,VALID,0,VALID,22.7287,VALID,351,VALID,0.304297,
2011-12-13, 02:35:04,VALID,1002.48,VALID,0,VALID,95.1932,VALID,0,VALID,22.7076,VALID,352,VALID,0.898438,
2011-12-13, 02:36:04,VALID,1002.45,VALID,0,VALID,94.949,VALID,0,VALID,22.6898,VALID,356,VALID,1.42305,
2011-12-13, 02:37:04,VALID,1002.4,VALID,0,VALID,94.9948,VALID,0,VALID,22.6898,VALID,349,VALID,1.04805,
2011-12-13, 02:38:04,VALID,1002.33,VALID,0,VALID,94.9033,VALID,0,VALID,22.6704,VALID,340,VALID,0.964844,
2011-12-13, 02:39:04,VALID,1002.26,VALID,0,VALID,95.033,VALID,0,VALID,22.6704,VALID,355,VALID,0.65625,
2011-12-13, 02:40:04,VALID,1002.26,VALID,0,VALID,95.1245,VALID,0,VALID,22.6898,VALID,355,VALID,0.762891,
2011-12-13, 02:41:04,VALID,1002.22,VALID,0,VALID,95.0558,VALID,0,VALID,22.6686,VALID,353,VALID,0.816016,
2011-12-13, 02:42:04,VALID,1002.21,VALID,0,VALID,95.0558,VALID,0,VALID,22.6898,VALID,349,VALID,0.911328,
2011-12-13, 02:43:04,VALID,1002.3,VALID,0,VALID,95.1321,VALID,0,VALID,22.6898,VALID,1,VALID,0.214844,
2011-12-13, 02:44:04,VALID,1002.32,VALID,0,VALID,95.1093,VALID,0.0815089,VALID,22.6898,VALID,323,VALID,0.307813,
2011-12-13, 02:45:04,VALID,1002.34,VALID,0,VALID,94.5066,VALID,0,VALID,22.6315,VALID,346,VALID,1.48789,
2011-12-13, 02:46:04,VALID,1002.36,VALID,0,VALID,93.8963,VALID,0,VALID,22.612,VALID,350,VALID,1.75391,
2011-12-13, 02:47:04,VALID,1002.29,VALID,0,VALID,94.2701,VALID,0,VALID,22.6898,VALID,358,VALID,0.991797,
2011-12-13, 02:48:04,VALID,1002.25,VALID,0,VALID,94.3006,VALID,0,VALID,22.7093,VALID,2,VALID,0.524219,
2011-12-13, 02:49:04,VALID,1002.26,VALID,0,VALID,94.3769,VALID,0,VALID,22.7093,VALID,3,VALID,0.451953,
2011-12-13, 02:50:04,VALID,1002.3,VALID,0,VALID,94.5295,VALID,0,VALID,22.7482,VALID,3,VALID,0.239844,
2011-12-13, 02:51:04,VALID,1002.31,VALID,0,VALID,94.6286,VALID,0,VALID,22.727,VALID,3,VALID,0,
2011-12-13, 02:52:04,VALID,1002.3,VALID,0,VALID,94.6591,VALID,0,VALID,22.7482,VALID,3,VALID,0,
2011-12-13, 02:53:04,VALID,1002.26,VALID,0,VALID,94.6897,VALID,0,VALID,22.727,VALID,3,VALID,0.539844,
2011-12-13, 02:54:04,VALID,1002.22,VALID,0,VALID,94.7354,VALID,0,VALID,22.7677,VALID,12,VALID,0.574219,
2011-12-13, 02:55:04,VALID,1002.2,VALID,0,VALID,94.7583,VALID,0,VALID,22.7871,VALID,14,VALID,0.392578,
2011-12-13, 02:56:04,VALID,1002.2,VALID,0,VALID,94.7583,VALID,0,VALID,22.7871,VALID,34,VALID,0.482812,
2011-12-13, 02:57:04,VALID,1002.16,VALID,0,VALID,94.6591,VALID,0,VALID,22.7465,VALID,61,VALID,0.500781,
2011-12-13, 02:58:04,VALID,1002.15,VALID,0,VALID,94.7202,VALID,0,VALID,22.7677,VALID,76,VALID,0.454688,
2011-12-13, 02:59:04,VALID,1002.13,VALID,0,VALID,94.6973,VALID,0,VALID,22.7677,VALID,92,VALID,0.507422,
2011-12-13, 03:00:04,VALID,1002.09,VALID,0,VALID,94.7507,VALID,0,VALID,22.7659,VALID,92,VALID,0.816406,
2011-12-13, 03:01:04,VALID,1002.08,VALID,0,VALID,94.7354,VALID,0,VALID,22.7677,VALID,91,VALID,0.526953,
2011-12-13, 03:02:04,VALID,1002.07,VALID,0,VALID,94.7965,VALID,0,VALID,22.7871,VALID,91,VALID,0.266797,
2011-12-13, 03:03:04,VALID,1002.06,VALID,0,VALID,94.8422,VALID,0,VALID,22.7677,VALID,91,VALID,0.280078,
2011-12-13, 03:04:04,VALID,1002.07,VALID,0,VALID,94.8804,VALID,0,VALID,22.7871,VALID,39,VALID,0.421484,
2011-12-13, 03:05:04,VALID,1002.07,VALID,0,VALID,94.9872,VALID,0,VALID,22.7871,VALID,26,VALID,0.865625,
2011-12-13, 03:06:04,VALID,1002.06,VALID,0,VALID,94.8651,VALID,0,VALID,22.7659,VALID,29,VALID,0.928125,
2011-12-13, 03:07:04,VALID,1002.06,VALID,0,VALID,94.827,VALID,0,VALID,22.8066,VALID,27,VALID,0.586719,
2011-12-13, 03:08:04,VALID,1002.06,VALID,0,VALID,94.9262,VALID,0,VALID,22.8048,VALID,24,VALID,0.516406,
2011-12-13, 03:09:04,VALID,1002.02,VALID,0,VALID,94.9948,VALID,0,VALID,22.8243,VALID,21,VALID,0.630859,
2011-12-13, 03:10:04,VALID,1002.01,VALID,0,VALID,95.0101,VALID,0,VALID,22.8455,VALID,21,VALID,0.412891,
2011-12-13, 03:11:04,VALID,1001.99,VALID,0,VALID,95.0024,VALID,0,VALID,22.8455,VALID,21,VALID,0.294531,
2011-12-13, 03:12:04,VALID,1001.97,VALID,0,VALID,95.0482,VALID,0,VALID,22.8649,VALID,21,VALID,0.282813,
2011-12-13, 03:13:04,VALID,1001.99,VALID,0,VALID,95.0864,VALID,0,VALID,22.8649,VALID,21,VALID,0.0257812,
2011-12-13, 03:14:04,VALID,1002.01,VALID,0,VALID,95.1855,VALID,0,VALID,22.8844,VALID,20,VALID,0.00273437,
2011-12-13, 03:15:04,VALID,1001.98,VALID,0,VALID,95.1016,VALID,0,VALID,22.8632,VALID,5,VALID,0.668359,
2011-12-13, 03:16:04,VALID,1001.98,VALID,0,VALID,95.1169,VALID,0,VALID,22.9039,VALID,5,VALID,0.55,
2011-12-13, 03:17:04,VALID,1001.96,VALID,0,VALID,95.1245,VALID,0,VALID,22.8844,VALID,5,VALID,0.419141,
2011-12-13, 03:18:04,VALID,1001.92,VALID,0,VALID,95.1245,VALID,0,VALID,22.9039,VALID,5,VALID,0.43125,
2011-12-13, 03:19:04,VALID,1001.92,VALID,0,VALID,95.1855,VALID,0,VALID,22.9251,VALID,5,VALID,0.0578125,
2011-12-13, 03:20:04,VALID,1001.92,VALID,0,VALID,95.1169,VALID,0,VALID,22.8844,VALID,5,VALID,0.5875,
2011-12-13, 03:21:04,VALID,1001.88,VALID,0,VALID,95.0482,VALID,0,VALID,22.8861,VALID,12,VALID,0.592969,
2011-12-13, 03:22:04,VALID,1001.88,VALID,0,VALID,95.1016,VALID,0,VALID,22.8438,VALID,13,VALID,0.574219,
2011-12-13, 03:23:04,VALID,1001.88,VALID,0,VALID,95.1627,VALID,0,VALID,22.8455,VALID,13,VALID,0.471875,
2011-12-13, 03:24:04,VALID,1001.88,VALID,0,VALID,95.1703,VALID,0,VALID,22.8455,VALID,13,VALID,0.474219,
2011-12-13, 03:25:04,VALID,1001.89,VALID,0,VALID,95.2618,VALID,0,VALID,22.8649,VALID,13,VALID,0.203516,
2011-12-13, 03:26:04,VALID,1001.87,VALID,0,VALID,95.3152,VALID,0,VALID,22.8649,VALID,13,VALID,0,
2011-12-13, 03:27:04,VALID,1001.84,VALID,0,VALID,95.3381,VALID,0,VALID,22.8844,VALID,13,VALID,0,
2011-12-13, 03:28:04,VALID,1001.85,VALID,0,VALID,95.2847,VALID,0,VALID,22.8667,VALID,13,VALID,0.0675781,
2011-12-13, 03:29:04,VALID,1001.84,VALID,0,VALID,95.3305,VALID,0,VALID,22.8827,VALID,15,VALID,0.439063,
2011-12-13, 03:30:04,VALID,1001.8,VALID,0,VALID,95.2923,VALID,0,VALID,22.8649,VALID,87,VALID,0.696094,
2011-12-13, 03:31:04,VALID,1001.78,VALID,0,VALID,95.2695,VALID,0,VALID,22.8243,VALID,87,VALID,0.485156,
2011-12-13, 03:32:04,VALID,1001.75,VALID,0,VALID,95.3305,VALID,0,VALID,22.8649,VALID,87,VALID,0.185547,
2011-12-13, 03:33:04,VALID,1001.74,VALID,0,VALID,95.3305,VALID,0,VALID,22.8455,VALID,87,VALID,0.325391,
2011-12-13, 03:34:04,VALID,1001.69,VALID,0,VALID,95.2542,VALID,0,VALID,22.826,VALID,87,VALID,0.654688,
2011-12-13, 03:35:04,VALID,1001.71,VALID,0,VALID,95.1245,VALID,0,VALID,22.7871,VALID,87,VALID,0.4375,
2011-12-13, 03:36:04,VALID,1001.69,VALID,0,VALID,95.1703,VALID,0,VALID,22.7659,VALID,87,VALID,0.405078,
2011-12-13, 03:37:04,VALID,1001.73,VALID,0,VALID,95.2389,VALID,0,VALID,22.8066,VALID,81,VALID,0.378125,
2011-12-13, 03:38:04,VALID,1001.72,VALID,0,VALID,95.2618,VALID,0,VALID,22.7854,VALID,76,VALID,0.426172,
2011-12-13, 03:39:04,VALID,1001.74,VALID,0,VALID,95.2237,VALID,0,VALID,22.7659,VALID,70,VALID,0.30625,
2011-12-13, 03:40:04,VALID,1001.72,VALID,0,VALID,95.2542,VALID,0,VALID,22.7871,VALID,39,VALID,0.544922,
2011-12-13, 03:41:04,VALID,1001.7,VALID,0,VALID,95.3229,VALID,0,VALID,22.7871,VALID,39,VALID,0.471094,
2011-12-13, 03:42:04,VALID,1001.73,VALID,0,VALID,95.3457,VALID,0,VALID,22.8066,VALID,37,VALID,0.437109,
2011-12-13, 03:43:04,VALID,1001.72,VALID,0,VALID,95.3686,VALID,0,VALID,22.7854,VALID,37,VALID,0.0792969,
2011-12-13, 03:44:04,VALID,1001.71,VALID,0,VALID,95.361,VALID,0,VALID,22.8048,VALID,37,VALID,0,